[[{"header":{"parameterUnit":"m.s-1","parameterCategory":1,"la1":30.2991,"la2":30.254,"lo1":-89.0895,"lo2":-89.0444,"dy":0.0017,"dx":0.0017,"nx":28,"ny":28,"refTime":"2024-11-30T03:00:00:Z","depth":0,"parameterNumber":2,"parameterNumberName":"U-component_of_WINDS"},"data":[0,0,0,0,0,0,0,0,0,0,0,0,0,0,0,0,0,0,0,0,0,0,0,0,0,0,0,0,0,0,0,0,0,0,0,0,0,0,0,0,0,0,0,0,0,0,0,0,0,0,0,0,0,0,0,0,0,0,-2.5356,-2.5356,0,-2.5356,-2.5356,-2.5356,-2.5281,-2.5279,-2.5277,-2.5275,-2.5278,-2.528,-2.5282,0,0,0,0,0,0,0,0,0,0,0,0,0,-2.5294,-2.5296,-2.5356,-2.5356,-2.5356,-2.5356,-2.5356,-2.5356,-2.5281,-2.5279,-2.5276,-2.5274,-2.5277,-2.528,-2.5282,0,0,0,0,0,0,0,0,0,0,0,0,0,-2.531,-2.5296,-2.5356,-2.5318,-2.5315,-2.5356,-2.5356,-2.5356,-2.5281,-2.5279,-2.5276,-2.5273,-2.5277,-2.5279,-2.5282,-2.536,0,0,-2.5291,-2.5292,0,0,0,0,0,0,0,0,-2.531,-2.5313,-2.5324,-2.5321,-2.5317,-2.5315,-2.5335,-2.5357,-2.5282,-2.5294,-2.5275,-2.5271,-2.5293,-2.5294,-2.5301,-2.536,-2.536,-2.5291,-2.5293,-2.5294,-2.5295,0,0,0,0,0,0,0,-2.5309,-2.5312,-2.5356,-2.5324,-2.532,-2.5303,-2.5302,-2.5339,-2.5311,-2.5293,-2.5288,-2.5288,-2.5291,-2.5298,-2.5301,-2.536,-2.5291,-2.5294,-2.5296,-2.5297,-2.5485,-2.5488,0,0,0,0,0,0,-2.5312,-2.5312,-2.5356,-2.5356,-2.5306,-2.5306,-2.5305,-2.5319,-2.531,-2.5305,-2.5291,-2.5285,-2.5295,-2.5297,-2.53,-2.5392,-2.5294,-2.5297,-2.5299,-2.5481,-2.5485,-2.5489,0,0,0,0,0,0,-2.5311,-2.5317,-2.5356,-2.5332,-2.5336,-2.531,-2.5327,-2.532,-2.5328,-2.5308,-2.5303,-2.5304,-2.5293,-2.5296,-2.5346,-2.5391,-2.5298,-2.5301,-2.5478,-2.5483,-2.5487,-2.5575,0,0,0,0,0,0,-2.531,-2.5317,-2.5345,-2.5333,-2.5337,-2.5401,-2.5329,-2.5323,-2.5333,-2.5325,-2.5319,-2.5315,-2.5291,-2.5342,-2.5349,-2.5393,-2.5303,-2.5473,-2.548,-2.5486,-2.5568,-2.5583,-2.5595,0,0,0,0,0,-2.5308,-2.537,-2.5347,-2.5353,-2.5372,-2.5403,-2.5406,-2.5375,-2.5337,-2.5366,-2.5353,-2.5315,-2.5385,-2.5348,-2.5355,-2.5401,-2.547,-2.5478,-2.5485,-2.5562,-2.558,-2.5594,0,0,0,0,0,0,-2.5389,-2.5368,-2.5342,-2.5402,-2.5405,-2.539,-2.5426,-2.5394,-2.5409,-2.5401,-2.5363,-2.5362,-2.5419,-2.5414,-2.5373,-2.5476,-2.5421,-2.543,-2.5477,-2.5494,-2.5507,-2.5508,-2.5306,0,0,0,0,0,-2.5414,-2.5439,-2.542,-2.5476,-2.5478,-2.5452,-2.5464,-2.5441,-2.5442,-2.5443,-2.5434,-2.5438,-2.5461,-2.5477,-2.5496,-2.5567,-2.5565,-2.5602,-2.5615,-2.5626,-2.5635,-2.5674,-2.5691,-2.5513,-2.5513,-2.5513,0,0,-2.5466,-2.5457,-2.5476,-2.5492,-2.5491,-2.552,-2.5454,-2.5487,-2.5508,-2.5448,-2.5495,-2.5489,-2.5491,-2.5551,-2.5578,-2.555,-2.5684,-2.5636,-2.5645,-2.5648,-2.5683,-2.57,-2.5715,-2.5518,-2.5517,-2.5516,0,0,-2.5575,-2.5571,-2.5617,-2.5618,-2.5617,-2.5599,-2.5611,-2.5601,-2.5594,-2.564,-2.5596,-2.5622,-2.5661,-2.5665,-2.5672,-2.5784,-2.575,-2.5791,-2.5861,-2.59,-2.5914,-2.5926,-2.5968,-2.5983,-2.58,-2.58,-2.58,0,-2.564,-2.5681,-2.5645,-2.5682,-2.5691,-2.5637,-2.5685,-2.5687,-2.5693,-2.5702,-2.5669,-2.5719,-2.5716,-2.5778,-2.5805,-2.5812,-2.5825,-2.5792,-2.5914,-2.5926,-2.5937,-2.5977,-2.5993,-2.5805,-2.5804,-2.5804,-2.5803,0,-2.5762,-2.5791,-2.5829,-2.5836,-2.5849,-2.5891,-2.5863,-2.588,-2.5855,-2.5842,-2.589,-2.5885,-2.5903,-2.5915,-2.5892,-2.5975,-2.5958,-2.592,-2.5864,-2.596,-2.5997,-2.6011,-2.5812,-2.581,-2.5809,-2.5808,0,0,-2.5924,-2.591,-2.5925,-2.5928,-2.5924,-2.5946,-2.5986,-2.6003,-2.602,-2.6026,-2.606,-2.6095,-2.6061,-2.6069,-2.6045,-2.6079,-2.617,-2.6037,-2.6037,-2.6064,-2.6264,-2.6293,-2.6311,-2.6147,-2.615,-2.6152,-2.6264,0,-2.6032,-2.6099,-2.6068,-2.6139,-2.6166,-2.6116,-2.6151,-2.6153,-2.6141,-2.6163,-2.615,-2.6177,-2.6128,-2.6133,-2.6164,-2.6152,-2.621,-2.6144,-2.618,-2.6182,-2.6184,-2.633,-2.6361,-2.6468,-2.6278,-2.628,-2.6282,0,-2.6167,-2.6178,-2.6252,-2.6244,-2.6254,-2.6286,-2.63,-2.6321,-2.6323,-2.6312,-2.6322,-2.629,-2.633,-2.6273,-2.6329,-2.6285,-2.6298,-2.6295,-2.6298,-2.6302,-2.624,-2.634,-2.65,-2.6518,-2.6304,-2.6302,-2.6301,0,-2.628,-2.6314,-2.6363,-2.6367,-2.6358,-2.6382,-2.6379,-2.6377,-2.639,-2.6403,-2.6411,-2.6428,-2.6438,-2.6453,-2.6428,-2.6388,-2.6488,-2.6429,-2.6482,-2.6483,-2.6507,-2.6507,-2.6674,-2.6512,-2.6512,-2.6512,-2.6512,0,-2.6405,-2.6453,-2.6414,-2.6444,-2.6496,-2.6461,-2.6514,-2.6506,-2.6505,-2.6534,-2.6491,-2.6519,-2.6483,-2.6509,-2.6489,-2.654,-2.6544,-2.6538,-2.6533,-2.6543,-2.6544,-2.6553,-2.6546,-2.6516,-2.6515,-2.6514,-2.6514,0,-2.6542,-2.6517,-2.6567,-2.6554,-2.6552,-2.6592,-2.6581,-2.661,-2.6594,-2.6632,-2.6638,-2.6616,-2.6643,-2.6619,-2.6646,-2.6633,-2.6701,-2.6684,-2.67,-2.6696,-2.6752,-2.6748,-2.6933,-2.6957,-2.6778,-2.6779,-2.6781,0,-2.6624,-2.666,-2.6651,-2.6666,-2.6666,-2.6692,-2.6705,-2.6671,-2.6687,-2.6692,-2.672,-2.6744,-2.6761,-2.6808,-2.6795,-2.6815,-2.68,-2.6863,-2.6803,-2.6813,-2.6804,-2.6803,-2.6807,-2.6876,-2.6878,-2.688,-2.6882,0,-2.6774,-2.676,-2.6779,-2.6795,-2.6812,-2.6822,-2.683,-2.6846,-2.6811,-2.6831,-2.6858,-2.6872,-2.6899,-2.6924,-2.694,-2.6939,-2.6906,-2.69,-2.6914,-2.6927,-2.6936,-2.6934,-2.6736,-2.6897,-2.6895,-2.6894,-2.6893,-2.6893,-2.6888,-2.6917,-2.6916,-2.6939,-2.6941,-2.695,-2.6976,-2.6964,-2.6986,-2.7005,-2.6984,-2.7018,-2.702,-2.7038,-2.7041,-2.7068,-2.7042,-2.7061,-2.7067,-2.7073,-2.7082,-2.6929,-2.7071,-2.707,-2.707,-2.7069,-2.7069,0,-2.7037,-2.7033,-2.7055,-2.7067,-2.7086,-2.7051,-2.7058,-2.7077,-2.7107,-2.7111,-2.7128,-2.7161,-2.7185,-2.7174,-2.7195,-2.7219,-2.7205,-2.7226,-2.7225,-2.7226,-2.7103,-2.709,-2.7238,-2.7238,-2.7238,-2.7238,-2.7238,-2.7238,-2.7117,-2.7166,-2.7152,-2.7203,-2.7199,-2.7231,-2.7238,-2.7246,-2.7249,-2.7287,-2.7307,-2.7299,-2.7297,-2.7318,-2.7339,-2.7335,-2.7346,-2.7374,-2.7365,-2.7251,-2.7234,-2.7219,-2.7206,-2.7376,-2.7376,-2.7486,-2.7487,-2.7488]},{"header":{"parameterUnit":"m.s-1","parameterCategory":1,"la1":30.2991,"la2":30.254,"lo1":-89.0895,"lo2":-89.0444,"dy":0.0017,"dx":0.0017,"nx":28,"ny":28,"refTime":"2024-11-30T03:00:00:Z","depth":0,"parameterNumber":3,"parameterNumberName":"V-component_of_WINDS"},"data":[0,0,0,0,0,0,0,0,0,0,0,0,0,0,0,0,0,0,0,0,0,0,0,0,0,0,0,0,0,0,0,0,0,0,0,0,0,0,0,0,0,0,0,0,0,0,0,0,0,0,0,0,0,0,0,0,0,0,-1.0493,-1.0494,0,-1.0559,-1.056,-1.0561,-1.0573,-1.0573,-1.0572,-1.0572,-1.0641,-1.0643,-1.0645,0,0,0,0,0,0,0,0,0,0,0,0,0,-1.0378,-1.038,-1.0493,-1.0494,-1.0495,-1.0559,-1.056,-1.0561,-1.0573,-1.0573,-1.0572,-1.0572,-1.064,-1.0643,-1.0645,0,0,0,0,0,0,0,0,0,0,0,0,0,-1.0435,-1.0381,-1.0493,-1.0509,-1.0511,-1.0559,-1.056,-1.0561,-1.0574,-1.0573,-1.0572,-1.0571,-1.0639,-1.0642,-1.0646,-1.0683,0,0,-1.0656,-1.0658,0,0,0,0,0,0,0,0,-1.0432,-1.0439,-1.0506,-1.0508,-1.051,-1.0557,-1.0545,-1.0602,-1.0574,-1.055,-1.0572,-1.0571,-1.0614,-1.0619,-1.0633,-1.0686,-1.0689,-1.0657,-1.0659,-1.066,-1.0661,0,0,0,0,0,0,0,-1.0428,-1.0436,-1.0519,-1.0507,-1.0509,-1.0513,-1.052,-1.0556,-1.0585,-1.0552,-1.0553,-1.056,-1.0615,-1.063,-1.0635,-1.069,-1.0657,-1.066,-1.0662,-1.0663,-1.0777,-1.0778,0,0,0,0,0,0,-1.0421,-1.0433,-1.0517,-1.0521,-1.0468,-1.0515,-1.0523,-1.0543,-1.0585,-1.0591,-1.0561,-1.0561,-1.0624,-1.0631,-1.0637,-1.0684,-1.066,-1.0664,-1.0666,-1.0777,-1.0778,-1.0779,0,0,0,0,0,0,-1.0418,-1.0428,-1.0515,-1.0477,-1.0489,-1.0518,-1.054,-1.0545,-1.056,-1.0592,-1.0597,-1.0571,-1.0624,-1.0633,-1.0672,-1.0687,-1.0665,-1.0668,-1.0775,-1.0777,-1.0778,-1.0778,0,0,0,0,0,0,-1.0415,-1.0427,-1.0442,-1.0478,-1.0491,-1.0548,-1.0541,-1.0547,-1.0566,-1.0566,-1.0603,-1.0608,-1.0624,-1.0666,-1.0675,-1.0691,-1.0671,-1.0774,-1.0776,-1.0778,-1.0777,-1.078,-1.0782,0,0,0,0,0,-1.0411,-1.0439,-1.0442,-1.0453,-1.0509,-1.0549,-1.0556,-1.0573,-1.0567,-1.0582,-1.0602,-1.0607,-1.0683,-1.067,-1.068,-1.0698,-1.0773,-1.0776,-1.0778,-1.0776,-1.0779,-1.0782,0,0,0,0,0,0,-1.0405,-1.0444,-1.0448,-1.0489,-1.0515,-1.0551,-1.057,-1.0576,-1.0604,-1.0604,-1.0624,-1.0632,-1.067,-1.0688,-1.0672,-1.0736,-1.0728,-1.0732,-1.0723,-1.0727,-1.0729,-1.0724,-1.0674,0,0,0,0,0,-1.0408,-1.0437,-1.047,-1.0503,-1.0515,-1.054,-1.0558,-1.0569,-1.0597,-1.0608,-1.0632,-1.0659,-1.0689,-1.0709,-1.0738,-1.0779,-1.0788,-1.0796,-1.0798,-1.08,-1.0804,-1.0827,-1.0831,-1.0786,-1.0786,-1.0786,0,0,-1.0416,-1.0441,-1.0458,-1.0502,-1.0524,-1.0553,-1.055,-1.0581,-1.0603,-1.0613,-1.0652,-1.0669,-1.0701,-1.0741,-1.076,-1.0757,-1.0818,-1.0803,-1.0804,-1.0807,-1.083,-1.0834,-1.0838,-1.0787,-1.0787,-1.0787,0,0,-1.0445,-1.0466,-1.0496,-1.0518,-1.055,-1.0566,-1.0573,-1.0608,-1.062,-1.0658,-1.0667,-1.0693,-1.0745,-1.0767,-1.0785,-1.0821,-1.0827,-1.083,-1.0843,-1.0865,-1.0869,-1.0872,-1.0886,-1.089,-1.0834,-1.0834,-1.0834,0,-1.0451,-1.0495,-1.0511,-1.0542,-1.0561,-1.0571,-1.0602,-1.0622,-1.0662,-1.0675,-1.0671,-1.0736,-1.0758,-1.0803,-1.0812,-1.0826,-1.0835,-1.0827,-1.0867,-1.087,-1.0874,-1.0887,-1.0892,-1.0834,-1.0834,-1.0834,-1.0834,0,-1.05,-1.053,-1.0551,-1.0589,-1.061,-1.0641,-1.0662,-1.0682,-1.069,-1.0707,-1.0746,-1.0773,-1.0808,-1.0819,-1.0828,-1.0866,-1.0863,-1.0863,-1.0855,-1.0878,-1.0891,-1.0896,-1.0834,-1.0834,-1.0834,-1.0834,0,0,-1.0529,-1.0575,-1.0582,-1.06,-1.0636,-1.066,-1.069,-1.0724,-1.0741,-1.0768,-1.0795,-1.0837,-1.0837,-1.0857,-1.0868,-1.0888,-1.0916,-1.0885,-1.0886,-1.089,-1.096,-1.0961,-1.0966,-1.0919,-1.092,-1.0921,-1.0957,0,-1.0562,-1.0618,-1.0633,-1.068,-1.0708,-1.0717,-1.0744,-1.0769,-1.0785,-1.0811,-1.0829,-1.0859,-1.0856,-1.0868,-1.0888,-1.0908,-1.093,-1.0905,-1.0945,-1.0946,-1.0937,-1.0973,-1.0975,-1.1008,-1.0962,-1.0963,-1.0964,0,-1.061,-1.0637,-1.0687,-1.0719,-1.0731,-1.0755,-1.0787,-1.0812,-1.0841,-1.0851,-1.0873,-1.0882,-1.0915,-1.0905,-1.095,-1.0933,-1.095,-1.0962,-1.0963,-1.0969,-1.0957,-1.098,-1.1019,-1.1024,-1.0972,-1.0971,-1.097,0,-1.0627,-1.0676,-1.0712,-1.0727,-1.0765,-1.0781,-1.0798,-1.0825,-1.0845,-1.0873,-1.0885,-1.0917,-1.0934,-1.0958,-1.0976,-1.0967,-1.102,-1.1011,-1.103,-1.103,-1.1042,-1.1041,-1.1085,-1.1051,-1.1051,-1.1051,-1.1051,0,-1.0664,-1.0694,-1.072,-1.0742,-1.0776,-1.0793,-1.0826,-1.0843,-1.0868,-1.0893,-1.0903,-1.0927,-1.0948,-1.0975,-1.0989,-1.1025,-1.1033,-1.1042,-1.1046,-1.1042,-1.1041,-1.1054,-1.1053,-1.1052,-1.1052,-1.1051,-1.1051,0,-1.0689,-1.0708,-1.0748,-1.078,-1.0789,-1.0812,-1.084,-1.0862,-1.0878,-1.091,-1.0919,-1.0944,-1.0976,-1.0996,-1.1037,-1.1046,-1.1086,-1.1088,-1.1076,-1.1078,-1.1096,-1.1095,-1.1151,-1.116,-1.1119,-1.1119,-1.1119,0,-1.0712,-1.0735,-1.0769,-1.0787,-1.0804,-1.0833,-1.0852,-1.0869,-1.0889,-1.0923,-1.0941,-1.0974,-1.1001,-1.1052,-1.1074,-1.1105,-1.1109,-1.1126,-1.1114,-1.1109,-1.111,-1.1109,-1.1112,-1.1129,-1.1129,-1.1129,-1.113,0,-1.075,-1.0758,-1.0786,-1.0817,-1.084,-1.0865,-1.089,-1.0904,-1.0926,-1.0947,-1.098,-1.1001,-1.1042,-1.1075,-1.1108,-1.1125,-1.1132,-1.1133,-1.1139,-1.1137,-1.1129,-1.1134,-1.1083,-1.1132,-1.1132,-1.1132,-1.1132,-1.1132,-1.0776,-1.0797,-1.0825,-1.0855,-1.0875,-1.0898,-1.0921,-1.0939,-1.0966,-1.1001,-1.101,-1.1044,-1.1072,-1.1116,-1.1134,-1.1162,-1.1159,-1.1168,-1.1171,-1.1173,-1.1174,-1.1124,-1.1168,-1.1168,-1.1168,-1.1168,-1.1168,0,-1.0816,-1.0834,-1.0862,-1.0896,-1.092,-1.0922,-1.095,-1.097,-1.1,-1.1025,-1.1051,-1.1089,-1.112,-1.1144,-1.1176,-1.1194,-1.1197,-1.1202,-1.1201,-1.1205,-1.1174,-1.1166,-1.1198,-1.1198,-1.1198,-1.1198,-1.1198,-1.1198,-1.084,-1.0876,-1.0887,-1.0933,-1.0951,-1.0984,-1.1,-1.1021,-1.1041,-1.1083,-1.1109,-1.1124,-1.1148,-1.1182,-1.1211,-1.1217,-1.1229,-1.1233,-1.124,-1.1211,-1.1207,-1.1204,-1.1197,-1.1235,-1.1235,-1.127,-1.127,-1.127]}]]